EA3CTN-13 Weather Reports


time (UTC)temp
C
wind
direction
speed
KPH
gust
KPH
rain 1hr
cm
rain 24hr
cm
rain mn
cm
humidity
%
barometer
mb
20260507162122 23 0.0 0.0 0.00 0.00 0.00 44 1012.5
20260507161322 23 0.0 0.0 0.00 0.00 0.00 43 1012.4
20260507160522 22 0.0 0.0 0.00 0.00 0.00 45 1012.5
20260507155721 23 0.0 0.0 0.00 0.00 0.00 43 1012.5
20260507154922 22 0.0 0.0 0.00 0.00 0.00 45 1012.5
20260507154122 22 0.0 0.0 0.00 0.00 0.00 46 1012.8
20260507153321 21 0.0 0.0 0.00 0.00 0.00 48 1013.0
20260507152521 21 0.0 0.0 0.00 0.00 0.00 47 1013.1
20260507151721 22 0.0 0.0 0.00 0.00 0.00 46 1013.1
20260507150921 22 0.0 0.0 0.00 0.00 0.00 45 1013.1
20260507150122 22 0.0 0.0 0.00 0.00 0.00 45 1012.9
20260507145321 22 0.0 0.0 0.00 0.00 0.00 45 1013.1
20260507144521 22 0.0 0.0 0.00 0.00 0.00 45 1013.1
20260507143721 21 0.0 0.0 0.00 0.00 0.00 45 1013.1
20260507142922 21 0.0 0.0 0.00 0.00 0.00 45 1013.1
20260507142121 21 0.0 0.0 0.00 0.00 0.00 46 1013.0
20260507141322 21 0.0 0.0 0.00 0.00 0.00 45 1013.2
20260507140521 21 0.0 0.0 0.00 0.00 0.00 46 1013.4
20260507135722 20 0.0 0.0 0.00 0.00 0.00 47 1013.3
20260507134921 21 0.0 0.0 0.00 0.00 0.00 47 1013.4
20260507134121 20 0.0 0.0 0.00 0.00 0.00 47 1013.7
20260507133321 21 0.0 0.0 0.00 0.00 0.00 45 1013.8
20260507132521 20 0.0 0.0 0.00 0.00 0.00 46 1013.8
20260507131721 21 0.0 0.0 0.00 0.00 0.00 46 1013.9
20260507130921 20 0.0 0.0 0.00 0.00 0.00 47 1013.9
20260507130121 21 0.0 0.0 0.00 0.00 0.00 46 1014.0
20260507125321 21 0.0 0.0 0.00 0.00 0.00 47 1014.1
20260507124521 21 0.0 0.0 0.00 0.00 0.00 47 1014.2
20260507123722 21 0.0 0.0 0.00 0.00 0.00 48 1014.3
20260507122921 21 0.0 0.0 0.00 0.00 0.00 48 1014.3
20260507122121 21 0.0 0.0 0.00 0.00 0.00 48 1014.4
20260507121321 21 0.0 0.0 0.00 0.00 0.00 49 1014.4
20260507120521 21 0.0 0.0 0.00 0.00 0.00 48 1014.6
20260507115721 21 0.0 0.0 0.00 0.00 0.00 48 1014.5
20260507114922 21 0.0 0.0 0.00 0.00 0.00 48 1014.7
20260507114121 21 0.0 0.0 0.00 0.00 0.00 48 1014.6
20260507113321 21 0.0 0.0 0.00 0.00 0.00 47 1014.5
20260507112521 21 0.0 0.0 0.00 0.00 0.00 48 1014.6
20260507111721 20 0.0 0.0 0.00 0.00 0.00 49 1014.5
20260507110921 20 0.0 0.0 0.00 0.00 0.00 49 1014.6
20260507110121 21 0.0 0.0 0.00 0.00 0.00 49 1014.8
20260507105321 20 0.0 0.0 0.00 0.00 0.00 50 1014.9
20260507104521 20 0.0 0.0 0.00 0.00 0.00 49 1014.8
20260507103721 20 0.0 0.0 0.00 0.00 0.00 50 1014.8
20260507102921 20 0.0 0.0 0.00 0.00 0.00 49 1015.0
20260507102121 20 0.0 0.0 0.00 0.00 0.00 49 1015.1
20260507101321 21 0.0 0.0 0.00 0.00 0.00 49 1015.1
20260507100521 21 0.0 0.0 0.00 0.00 0.00 49 1015.2
20260507095721 20 0.0 0.0 0.00 0.00 0.00 48 1015.2
20260507094921 20 0.0 0.0 0.00 0.00 0.00 49 1015.1
20260507094121 19 0.0 0.0 0.00 0.00 0.00 53 1015.2
20260507093321 20 0.0 0.0 0.00 0.00 0.00 53 1015.2
20260507092521 20 0.0 0.0 0.00 0.00 0.00 54 1015.2
20260507091721 19 0.0 0.0 0.00 0.00 0.00 54 1015.2
20260507090921 19 0.0 0.0 0.00 0.00 0.00 55 1015.2
20260507090121 19 0.0 0.0 0.00 0.00 0.00 55 1015.1
20260507085321 19 0.0 0.0 0.00 0.00 0.00 56 1014.9
20260507084521 19 0.0 0.0 0.00 0.00 0.00 55 1014.9
20260507083721 20 0.0 0.0 0.00 0.00 0.00 54 1015.0
20260507082921 19 0.0 0.0 0.00 0.00 0.00 56 1015.0
20260507082121 19 0.0 0.0 0.00 0.00 0.00 57 1015.0
20260507081321 19 0.0 0.0 0.00 0.00 0.00 58 1015.0
20260506220521 20 0.0 0.0 0.00 0.00 0.00 52 1014.1
20260506215721 20 0.0 0.0 0.00 0.00 0.00 52 1014.1
20260506214921 20 0.0 0.0 0.00 0.00 0.00 52 1014.1
20260506214121 20 0.0 0.0 0.00 0.00 0.00 52 1014.0
20260506213321 20 0.0 0.0 0.00 0.00 0.00 52 1014.1
20260506212521 20 0.0 0.0 0.00 0.00 0.00 52 1014.1
20260506211721 20 0.0 0.0 0.00 0.00 0.00 52 1014.1
20260506210921 20 0.0 0.0 0.00 0.00 0.00 51 1014.0
20260506210121 20 0.0 0.0 0.00 0.00 0.00 51 1014.1
20260506205321 20 0.0 0.0 0.00 0.00 0.00 50 1014.0
20260506204521 20 0.0 0.0 0.00 0.00 0.00 50 1013.9
20260506203721 20 0.0 0.0 0.00 0.00 0.00 49 1013.7
20260506202921 20 0.0 0.0 0.00 0.00 0.00 48 1013.7
20260506202121 21 0.0 0.0 0.00 0.00 0.00 47 1013.6
20260506201321 21 0.0 0.0 0.00 0.00 0.00 46 1013.3
20260506200521 20 0.0 0.0 0.00 0.00 0.00 46 1013.2
20260506195721 21 0.0 0.0 0.00 0.00 0.00 46 1013.2
20260506194921 21 0.0 0.0 0.00 0.00 0.00 45 1013.0
20260506194121 21 0.0 0.0 0.00 0.00 0.00 43 1012.9
20260506193321 21 0.0 0.0 0.00 0.00 0.00 43 1012.7
20260506192521 21 0.0 0.0 0.00 0.00 0.00 43 1012.6
20260506191721 21 0.0 0.0 0.00 0.00 0.00 42 1012.5
20260506190920 21 0.0 0.0 0.00 0.00 0.00 42 1012.5
20260506190121 21 0.0 0.0 0.00 0.00 0.00 42 1012.3
20260506185321 21 0.0 0.0 0.00 0.00 0.00 42 1012.3
20260506184521 22 0.0 0.0 0.00 0.00 0.00 41 1012.2
20260506183721 22 0.0 0.0 0.00 0.00 0.00 42 1012.1
20260506182921 22 0.0 0.0 0.00 0.00 0.00 42 1011.9
20260506182121 22 0.0 0.0 0.00 0.00 0.00 41 1011.9
20260506181321 22 0.0 0.0 0.00 0.00 0.00 39 1011.8
20260506180521 22 0.0 0.0 0.00 0.00 0.00 38 1011.6
20260506175720 22 0.0 0.0 0.00 0.00 0.00 37 1011.7
20260506174922 23 0.0 0.0 0.00 0.00 0.00 37 1011.5
20260506174120 23 0.0 0.0 0.00 0.00 0.00 36 1011.4
20260506173321 23 0.0 0.0 0.00 0.00 0.00 37 1011.4
20260506172521 23 0.0 0.0 0.00 0.00 0.00 35 1011.1
20260506171721 24 0.0 0.0 0.00 0.00 0.00 34 1011.2
20260506170921 25 0.0 0.0 0.00 0.00 0.00 33 1011.1
20260506170121 25 0.0 0.0 0.00 0.00 0.00 34 1011.0
20260506165321 27 0.0 0.0 0.00 0.00 0.00 30 1010.8
20260506164520 30 0.0 0.0 0.00 0.00 0.00 25 1010.7
20260506163720 38 0.0 0.0 0.00 0.00 0.00 16 1010.4
20260506162920 37 0.0 0.0 0.00 0.00 0.00 16 1010.4